This demonstration page uses our WeatherBlox Daily Observations layout. Learn more.

40.92945, -100.16068

Hourly Observations for January 6, 2019

Temp ( °F °C ) Dew Point ( °F °C ) Humidity (%) Winds ( mph kmh ) Pressure ( in mb ) Visibility ( mi km ) Precip ( " mm )
12:15 am 00:15 Clear 36 2 32 0.2 88 88 ENE 6 9 30.06 1018 10 16.09344 0 0
12:35 am 00:35 Clear 36 2.2 33 0.6 89 89 ENE 7 11 30.03 1017 10 16.09344 0 0
12:55 am 00:55 Clear 37 2.5 33 0.7 88 88 ENE 7 11 30.03 1017 10 16.09344 0 0
1:15 am 01:15 Clear 37 2.5 33 0.8 89 89 ENE 9 15 30 1016 10 16.09344 0 0
1:35 am 01:35 Clear 37 2.5 33 0.7 88 88 ENE 8 13 30 1016 10 16.09344 0 0
1:50 am 01:50 Clear 36 2.3 33 0.7 89 89 E 10 17 30 1016 10 16.09344 0 0
2:15 am 02:15 Clear 37 2.5 33 0.7 88 88 ENE 5 7 30 1016 10 16.09344 0 0
2:35 am 02:35 Clear 36 2 33 0.5 90 90 E 6 9 30 1016 10 16.09344 0 0
2:55 am 02:55 Clear 37 2.5 33 0.8 89 89 E 6 9 29.97 1015 10 16.09344 0 0
3:15 am 03:15 Clear 36 2.2 33 0.6 89 89 E 5 7 29.97 1015 10 16.09344 0 0
3:35 am 03:35 Clear 36 2.3 33 0.6 89 89 E 7 11 29.91 1013 10 16.09344 0 0
3:55 am 03:55 Clear 36 2.3 33 0.5 88 88 E 8 13 29.88 1012 10 16.09344 0 0
4:15 am 04:15 Clear 36 2.3 33 0.6 89 89 E 7 11 29.88 1012 10 16.09344 0 0
4:35 am 04:35 Clear 36 2.3 33 0.6 89 89 E 7 11 29.88 1012 10 16.09344 0 0
4:55 am 04:55 Clear 37 2.5 33 0.5 87 87 E 7 11 29.85 1011 10 16.09344 0 0
5:15 am 05:15 Clear 36 2.1 33 0.5 89 89 E 6 9 29.85 1011 10 16.09344 0 0
5:35 am 05:35 Clear 36 2.1 33 0.4 89 89 E 6 9 29.83 1010 10 16.09344 0 0
5:55 am 05:55 Clear 36 2.1 32 0.2 87 87 E 6 9 29.83 1010 10 16.09344 0 0
6:15 am 06:15 Clear 35 1.7 32 0.1 89 89 E 6 9 29.8 1009 10 16.09344 0 0
6:35 am 06:35 Clear 36 2 32 0.2 88 88 E 7 11 29.8 1009 10 16.09344 0 0
6:55 am 06:55 Clear 35 1.9 32 0.1 88 88 E 7 11 29.8 1009 10 16.09344 0 0
7:15 am 07:15 Clear 35 1.8 32 0.1 89 89 E 8 13 29.8 1009 10 16.09344 0 0
7:35 am 07:35 Clear 35 1.8 32 0.1 89 89 E 7 11 29.77 1008 10 16.09344 0 0
7:55 am 07:55 Clear 35 1.7 32 0 89 89 ESE 7 11 29.77 1008 10 16.09344 0 0
8:15 am 08:15 Sunny 35 1.6 32 0 89 89 E 3 6 29.77 1008 7 11.265408 0 0
8:35 am 08:35 Sunny 34 1.1 32 0 92 92 ENE 3 6 29.77 1008 7 11.265408 0 0
8:55 am 08:55 Sunny with Mist and Fog 34 1 32 0 93 93 NE 3 6 29.77 1008 5 8.04672 0 0
9:15 am 09:15 Sunny 34 1 32 0 93 93 Calm 29.77 1008 7 11.265408 0 0
9:35 am 09:35 Sunny 35 1.7 32 0.2 90 90 ESE 3 6 29.77 1008 10 16.09344 0 0
9:55 am 09:55 Sunny 35 1.6 32 0 89 89 Calm 29.77 1008 7 11.265408 0 0
10:15 am 10:15 Sunny with Mist and Fog 35 1.5 32 0.2 91 91 Calm 29.77 1008 5 8.04672 0 0
10:35 am 10:35 Sunny 35 1.8 33 0.5 91 91 NNE 3 6 29.77 1008 7 11.265408 0 0
10:55 am 10:55 Sunny 36 2.1 33 0.6 90 90 ENE 3 6 29.77 1008 7 11.265408 0 0
11:15 am 11:15 Sunny 37 2.5 33 0.7 88 88 ESE 3 6 29.77 1008 10 16.09344 0 0
11:35 am 11:35 Sunny 37 2.7 33 0.7 87 87 Calm 29.74 1007 10 16.09344 0 0
11:55 am 11:55 Sunny 37 3 34 1 87 87 Calm 29.71 1006 10 16.09344 0 0
12:15 pm 12:15 Partly Cloudy 38 3.1 34 1 86 86 SE 3 6 29.71 1006 10 16.09344 0 0
12:35 pm 12:35 Mostly Cloudy 38 3.2 34 0.9 85 85 SSE 3 6 29.65 1004 10 16.09344 0 0
12:55 pm 12:55 Cloudy 38 3.4 34 1 84 84 Calm 29.65 1004 10 16.09344 0 0
1:15 pm 13:15 Cloudy 38 3.2 34 1 86 86 W 3 6 29.65 1004 10 16.09344 0 0
1:35 pm 13:35 Cloudy 38 3.2 34 1 86 86 W 7 11 29.65 1004 10 16.09344 0 0
1:55 pm 13:55 Cloudy 37 3 34 1 87 87 W 7 11 29.62 1003 7 11.265408 0 0
2:15 pm 14:15 Cloudy 38 3.1 34 1.1 87 87 WNW 7 11 29.62 1003 7 11.265408 0 0
2:35 pm 14:35 Cloudy 37 3 34 1 87 87 W 8 13 29.62 1003 7 11.265408 0 0
2:55 pm 14:55 Mostly Cloudy 38 3.2 34 1.2 87 87 WNW 9 15 29.62 1003 7 11.265408 0 0
3:15 pm 15:15 Partly Cloudy 38 3.2 34 1.1 86 86 NW 8 13 29.62 1003 7 11.265408 0 0
3:35 pm 15:35 Partly Cloudy 37 3 34 1 87 87 WNW 6 9 29.62 1003 7 11.265408 0 0
3:55 pm 15:55 Partly Cloudy 37 2.9 34 1 87 87 Calm 29.62 1003 7 11.265408 0 0
4:15 pm 16:15 Sunny 37 2.7 34 1 89 89 Calm 29.65 1004 7 11.265408 0 0
4:35 pm 16:35 Sunny with Mist and Fog 37 2.6 34 1 89 89 Calm 29.65 1004 5 8.04672 0 0
4:55 pm 16:55 Sunny with Mist and Fog 37 2.5 34 0.9 89 89 Calm 29.68 1005 5 8.04672 0 0
5:15 pm 17:15 Sunny with Mist and Fog 36 2.3 33 0.8 90 90 Calm 29.68 1005 5 8.04672 0 0
5:35 pm 17:35 Clear with Mist and Fog 36 2.3 33 0.7 89 89 Calm 29.65 1004 5 8.04672 0 0
5:55 pm 17:55 Clear with Mist and Fog 35 1.6 33 0.3 91 91 SSW 3 6 29.68 1005 5 8.04672 0 0
6:15 pm 18:15 Clear with Mist and Fog 35 1.7 33 0.5 92 92 Calm 29.68 1005 5 8.04672 0 0
6:35 pm 18:35 Clear with Mist and Fog 35 1.6 33 0.4 92 92 SW 3 6 29.68 1005 5 8.04672 0 0
6:55 pm 18:55 Clear 36 2 33 0.8 92 92 Calm 29.68 1005 7 11.265408 0 0
7:15 pm 19:15 Clear with Mist and Fog 35 1.7 33 0.5 92 92 Calm 29.65 1004 5 8.04672 0 0
7:35 pm 19:35 Clear with Mist and Fog 35 1.7 33 0.5 92 92 S 5 7 29.65 1004 5 8.04672 0 0
7:55 pm 19:55 Clear with Mist and Fog 35 1.7 33 0.6 93 93 Calm 29.65 1004 5 8.04672 0 0
8:15 pm 20:15 Clear with Mist and Fog 34 1.2 32 0.1 92 92 WNW 3 6 29.65 1004 4 6.437376 0 0
8:35 pm 20:35 Clear with Mist and Fog 34 1.2 32 0.2 93 93 W 3 6 29.68 1005 5 8.04672 0 0
8:55 pm 20:55 Clear with Mist and Fog 35 1.6 33 0.5 93 93 W 3 6 29.65 1004 5 8.04672 0 0
9:15 pm 21:15 Clear with Mist and Fog 35 1.6 33 0.5 93 93 WNW 5 7 29.68 1005 5 8.04672 0 0
9:35 pm 21:35 Clear with Mist and Fog 34 1.2 32 0.2 93 93 NW 7 11 29.68 1005 4 6.437376 0 0
9:55 pm 21:55 Partly Cloudy with Mist and Fog 35 1.7 33 0.7 93 93 WNW 8 13 29.68 1005 5 8.04672 0 0
10:15 pm 22:15 Cloudy with Mist and Fog 35 1.8 33 0.7 93 93 WNW 6 9 29.65 1004 5 8.04672 0 0
10:35 pm 22:35 Mostly Cloudy with Mist and Fog 36 2 33 0.7 91 91 WNW 3 6 29.68 1005 5 8.04672 0 0
10:55 pm 22:55 Cloudy with Mist and Fog 36 2 33 0.8 92 92 W 7 11 29.68 1005 5 8.04672 0 0
11:15 pm 23:15 Cloudy with Mist and Fog 35 1.8 33 0.6 92 92 WNW 7 11 29.68 1005 5 8.04672 0 0
11:35 pm 23:35 Cloudy 36 2.1 33 0.6 90 90 WNW 7 11 29.68 1005 7 11.265408 0 0
11:55 pm 23:55 Partly Cloudy 35 1.8 33 0.5 91 91 WSW 3 6 29.68 1005 7 11.265408 0 0

Powered by AerisWeather